Wind_Speed
9 10 12 13 16 18 19 19 19 20 20 20 22 23 24 25 24 23 22 21 21 21 22 22 23 23 24 24 24 24 25 25 24 24 24 22 20 19 19 19 20 21 21 21 21 19 18 19 18
8 8 11 13 15 18 19 20 19 17 17 18 20 23 22 22 23 24 23 21 21 21 22 23 24 25 25 25 24 25 25 25 24 23 23 23 22 21 20 21 21 22 23 23 23 22 21 21 21
5 7 10 11 14 16 18 17 16 15 16 16 17 20 21 20 20 22 24 22 22 24 25 26 26 26 26 25 25 25 25 25 24 23 23 23 23 23 23 23 24 24 24 24 24 24 23 23 22
3 5 7 9 11 13 14 11 12 13 12 12 14 17 18 19 18 20 23 23 23 24 26 27 27 27 27 27 26 26 26 26 26 25 25 25 25 25 25 25 25 25 25 25 25 25 24 24 23
3 3 5 6 7 10 9 8 10 9 7 9 12 15 17 19 19 19 20 22 22 23 25 27 27 27 28 28 28 28 28 28 28 28 28 27 27 27 26 26 26 26 26 26 25 25 25 25 24
2 3 6 7 7 7 6 6 9 10 10 11 15 18 21 21 21 20 21 23 24 25 25 26 28 29 29 30 30 30 30 31 31 31 31 30 30 29 28 28 27 27 27 27 27 27 26 26 26
5 6 7 9 9 6 5 7 9 12 15 16 18 21 23 23 22 22 24 27 29 29 29 29 30 32 33 33 33 33 33 34 33 33 33 32 32 31 30 29 29 29 29 29 29 29 28 28 28
7 8 9 10 10 9 10 11 13 16 19 20 21 23 25 26 26 26 28 31 32 32 32 32 33 33 33 34 35 35 35 35 35 35 34 33 32 31 30 30 29 29 29 30 30 29 29 29 29
7 8 8 10 12 13 14 16 17 20 22 23 24 25 27 28 29 29 30 32 33 32 31 31 32 31 30 30 32 34 35 35 35 35 34 32 31 30 29 29 28 29 29 29 29 29 30 29 29
7 7 7 8 11 13 15 17 18 19 21 22 24 24 25 26 26 26 27 28 30 31 30 29 30 30 29 28 29 31 33 34 35 35 34 32 31 30 29 29 28 28 28 28 28 29 29 29 29
7 7 7 7 10 13 16 16 16 16 16 17 19 21 23 24 26 26 26 27 28 29 29 29 30 31 31 31 30 31 32 34 35 35 35 34 34 33 32 32 31 31 30 30 30 30 30 30 29
9 10 10 10 13 16 18 18 18 17 17 16 17 20 23 26 28 30 32 32 32 32 32 32 33 34 35 35 34 33 33 35 37 38 38 38 37 36 36 36 35 34 34 34 35 35 34 34 33
13 14 14 15 17 20 21 21 21 20 20 20 21 23 25 27 30 32 34 36 36 36 35 35 36 37 38 38 38 38 37 37 38 39 39 40 40 40 39 39 38 38 38 37 37 37 37 37 37
15 15 16 17 19 20 22 22 20 19 19 21 22 23 24 26 27 30 32 34 36 36 37 37 38 40 41 41 41 41 41 41 41 41 41 42 42 43 43 43 43 42 42 41 40 40 40 40 39
14 14 14 15 17 18 19 18 17 17 17 19 21 23 24 25 27 29 31 34 36 37 38 38 39 41 42 43 43 43 43 44 44 44 45 46 46 46 46 47 47 47 46 46 45 44 44 44 44
13 13 12 12 14 15 16 16 16 17 19 21 24 27 29 31 32 34 35 37 39 41 43 44 44 45 46 47 49 50 50 50 51 51 51 51 51 52 52 52 52 52 52 51 51 50 50 49 49
14 14 13 13 15 17 19 20 20 20 22 25 28 31 33 35 37 38 39 41 42 44 46 47 49 49 50 51 53 54 55 55 55 56 57 57 57 58 58 58 58 58 57 57 56 56 56 55 54
14 15 16 17 18 22 24 26 26 26 28 30 33 34 36 38 40 41 42 43 44 46 47 49 50 51 52 52 52 53 56 57 58 58 59 60 61 61 62 63 63 63 63 62 62 62 61 61 60
14 17 19 21 22 25 28 29 30 30 31 33 34 36 38 40 43 44 45 46 47 48 50 52 53 55 56 56 56 57 58 60 61 62 63 63 62 62 62 63 65 66 67 67 67 66 66 66 65
16 18 21 23 25 27 30 31 31 33 35 36 38 41 43 45 48 50 51 51 52 54 57 59 62 63 64 65 65 64 64 65 66 67 67 68 67 67 66 65 66 67 67 68 68 68 67 68 68
19 21 23 24 25 29 32 33 35 37 40 42 45 48 51 54 56 58 59 61 62 63 64 65 67 69 71 71 71 71 70 70 72 72 72 73 73 73 72 72 71 70 71 71 71 70 69 68 68
21 23 26 28 29 31 35 38 40 44 46 50 53 56 59 62 66 68 69 70 70 70 70 70 70 72 74 76 78 78 77 76 77 77 77 77 78 78 78 78 77 76 76 76 76 75 74 72 70
22 25 28 31 33 34 38 43 46 49 52 55 58 61 65 68 72 75 77 77 76 75 74 74 74 76 78 81 82 83 82 81 80 80 80 79 79 79 79 80 81 81 80 80 81 81 80 78 76
24 27 31 35 38 40 44 49 53 55 59 61 64 68 72 74 76 78 79 80 80 79 79 79 80 81 82 82 82 81 79 77 75 75 76 76 76 76 77 80 81 82 81 82 82 83 83 82 80
27 30 35 40 43 46 50 55 59 62 65 69 72 75 76 77 77 78 79 80 81 82 83 83 82 80 79 76 71 67 63 61 60 61 63 65 66 68 70 73 76 78 79 79 80 81 82 82 81
30 34 39 43 47 51 55 60 64 68 72 75 77 77 76 76 77 78 80 82 84 84 84 83 79 73 66 59 52 48 47 47 49 52 55 58 61 63 65 67 69 69 70 70 69 72 74 75 76
34 39 43 48 53 58 61 64 69 73 77 77 75 73 72 73 75 78 81 83 83 82 79 75 67 58 50 42 38 38 40 42 44 46 47 49 52 55 59 63 65 63 61 61 60 61 63 64 65
39 44 49 54 59 62 64 69 73 77 74 71 68 67 69 71 73 73 72 70 66 63 57 51 46 41 36 33 33 35 37 39 39 39 41 43 44 44 45 51 58 59 57 55 54 53 54 54 54
42 47 52 57 60 65 69 73 75 72 68 65 64 66 66 65 61 57 53 53 52 47 41 36 32 30 29 30 31 33 35 36 37 39 41 42 41 39 37 38 44 52 54 53 52 50 49 49 48
45 50 55 59 62 66 71 74 72 67 63 62 62 61 59 55 52 51 50 48 44 39 33 28 26 26 26 28 29 32 34 35 36 37 38 38 35 32 30 29 32 40 48 51 52 50 47 46 46
Wind_Direction
244 239 234 231 233 238 243 243 241 242 244 246 246 242 239 241 244 248 246 247 249 255 260 265 269 273 276 278 280 282 283 284 283 281 274 264 258 259 262 265 264 262 261 261 262 264 266 269 272
244 240 237 232 232 242 243 240 238 240 242 243 241 240 237 238 242 247 251 254 257 260 262 265 269 272 275 276 277 279 280 280 278 274 268 261 258 258 261 263 264 262 260 259 259 261 264 267 268
249 244 244 241 241 245 250 247 244 242 239 236 234 238 238 240 245 252 256 261 262 262 263 265 268 271 273 274 275 276 276 275 272 267 262 260 260 262 264 264 263 262 260 259 258 258 260 261 261
269 262 245 246 252 256 258 263 252 245 243 243 241 245 250 251 251 254 258 264 266 268 269 270 271 272 274 275 275 273 272 270 267 263 262 262 263 264 264 265 263 261 259 257 256 256 257 257 257
278 281 270 272 277 278 281 264 262 261 256 264 266 263 259 259 262 262 263 265 267 268 271 273 274 274 275 275 274 272 270 267 264 263 264 264 264 263 263 262 261 260 258 255 254 253 253 254 254
272 270 275 276 279 298 294 264 269 276 270 258 255 260 263 263 267 271 273 272 270 268 268 270 273 275 275 274 273 272 270 267 266 265 265 265 265 264 263 261 260 259 257 254 252 251 252 252 253
268 272 278 290 299 307 291 274 272 273 271 267 265 267 271 276 282 284 282 279 277 276 277 276 275 275 274 273 272 270 269 268 268 267 267 267 266 265 263 261 259 257 256 254 252 252 252 254 255
282 279 280 285 287 279 268 264 265 269 272 273 275 279 284 288 290 289 286 284 283 283 283 282 279 277 276 274 271 268 266 265 265 265 265 264 263 261 260 257 256 254 253 253 252 252 253 254 256
290 283 281 278 278 276 272 268 268 270 276 282 288 291 294 294 295 293 290 287 285 284 283 282 280 278 276 274 271 268 266 264 262 261 259 257 255 254 254 253 251 250 250 251 252 253 253 254 255
306 302 292 289 286 282 276 274 278 284 292 297 300 299 296 293 291 288 285 282 282 282 282 281 280 278 274 271 269 268 266 265 263 259 256 253 250 250 250 249 248 248 248 249 250 251 251 252 252
332 322 315 305 294 288 288 293 298 301 305 304 303 301 297 293 290 288 285 282 280 280 279 275 274 274 273 270 267 267 265 264 263 261 257 254 252 251 250 249 248 248 248 248 248 249 250 250 251
332 329 324 315 305 301 302 304 305 304 302 298 291 287 286 286 287 288 287 285 283 281 278 275 271 270 269 269 269 267 265 264 263 263 261 259 257 255 253 251 249 248 248 248 248 249 250 251 251
323 326 323 316 311 308 306 309 309 306 301 296 292 289 286 286 285 285 285 285 285 283 280 276 274 272 270 269 269 268 266 263 262 262 262 261 260 259 257 255 253 251 250 250 250 251 252 252 252
322 326 324 320 313 309 312 317 319 318 311 307 303 300 298 295 294 293 291 290 289 287 285 281 277 275 273 271 270 269 268 266 263 262 261 260 259 258 258 257 256 255 254 254 254 254 255 255 254
327 328 328 324 318 318 321 326 333 332 324 317 312 306 302 298 295 293 291 290 289 288 286 284 281 277 275 274 273 271 270 269 268 266 264 262 261 259 258 257 257 257 256 255 255 255 255 256 256
352 355 355 346 338 335 334 340 340 333 322 314 308 304 300 298 294 291 287 285 283 282 281 280 278 275 273 273 273 273 272 271 271 269 268 266 264 262 260 259 258 257 256 256 255 255 255 255 255
13 8 5 0 353 342 335 336 334 325 316 309 304 302 300 298 296 294 291 287 284 281 279 277 275 273 272 272 272 272 271 270 269 268 268 267 265 264 263 261 260 259 258 257 257 256 255 254 254
7 360 355 353 345 334 330 330 328 322 316 311 308 306 304 302 301 299 296 292 288 284 281 278 277 275 275 274 273 272 271 270 269 268 267 266 266 264 263 262 261 260 259 258 257 257 256 255 254
3 353 347 344 337 330 328 327 326 322 317 313 310 308 305 303 301 299 296 293 289 286 283 281 279 278 277 276 274 272 270 269 269 269 268 267 266 266 265 264 263 262 261 259 258 257 256 256 255
356 347 342 339 335 331 330 329 326 321 318 315 312 309 306 304 302 299 296 293 289 285 283 282 281 280 279 277 275 273 270 268 266 266 267 267 267 267 266 265 263 262 261 260 259 258 257 256 255
346 343 340 340 338 333 330 328 325 322 319 316 313 311 308 306 304 301 298 295 291 288 286 284 283 282 281 280 277 274 272 271 270 268 267 267 266 266 266 265 264 263 262 260 259 258 257 256 255
344 344 343 341 339 336 330 326 324 321 319 317 314 312 309 306 304 302 299 296 293 290 288 286 284 283 283 283 283 281 279 276 274 272 270 268 267 266 266 265 264 263 262 261 260 259 258 256 255
346 344 342 338 335 332 327 323 319 318 317 314 312 309 307 304 302 299 298 296 293 291 288 286 285 284 283 284 284 284 284 282 280 278 275 272 269 267 265 264 263 262 262 261 260 259 258 256 255
343 340 336 332 329 327 323 319 316 316 314 312 309 308 305 302 300 298 296 294 292 290 288 286 285 285 285 286 286 286 286 285 283 280 278 275 272 268 264 262 260 259 258 257 257 257 256 255 254
338 336 332 330 328 325 322 318 316 315 313 310 309 307 304 302 299 297 294 292 290 289 288 288 288 288 290 291 291 290 288 285 283 280 277 275 272 268 263 260 257 255 254 254 253 253 252 252 252
332 331 331 329 326 323 321 319 317 314 312 311 310 307 304 301 298 295 294 293 293 292 291 290 291 292 293 293 291 290 289 288 287 285 282 278 272 267 263 258 255 252 250 248 248 249 249 249 249
329 329 329 328 326 325 323 319 316 315 314 312 309 306 302 299 296 296 296 296 297 296 295 294 293 293 293 292 291 293 295 297 298 298 297 293 287 277 267 257 252 250 247 244 243 244 246 247 248
329 330 331 331 328 325 322 318 317 316 314 311 306 302 299 298 299 301 303 305 306 305 303 299 297 295 293 294 295 298 302 303 305 305 304 302 298 290 278 261 248 242 240 240 240 242 245 246 246
330 332 332 330 327 324 321 319 320 317 315 310 307 305 306 308 310 314 317 318 318 316 311 305 300 298 296 297 299 304 306 306 305 308 309 308 301 292 284 270 251 238 234 233 236 239 243 244 243
331 332 331 329 326 324 321 321 322 319 316 312 311 313 314 317 320 324 325 325 325 323 319 314 310 306 304 304 306 309 310 309 308 310 314 314 308 297 285 272 253 236 229 229 232 234 237 240 239
Height
5848 5848 5848 5849 5850 5850 5850 5851 5852 5853 5853 5854 5854 5856 5857 5858 5859 5862 5860 5860 5860 5860 5860 5860 5859 5859 5858 5857 5857 5856 5855 5854 5853 5853 5853 5853 5852 5851 5851 5852 5852 5852 5852 5852 5852 5852 5852 5852 5852
5846 5845 5847 5847 5847 5847 5848 5848 5848 5849 5850 5850 5850 5852 5853 5854 5855 5855 5855 5856 5856 5856 5855 5855 5855 5854 5853 5852 5852 5851 5850 5849 5849 5848 5848 5848 5848 5847 5847 5847 5847 5847 5847 5847 5848 5848 5848 5848 5848
5844 5844 5846 5846 5845 5846 5847 5847 5847 5846 5846 5847 5848 5848 5850 5852 5852 5852 5852 5852 5851 5850 5850 5850 5849 5848 5848 5847 5846 5846 5845 5844 5843 5843 5843 5843 5843 5842 5842 5842 5842 5842 5842 5842 5843 5843 5843 5844 5844
5843 5844 5845 5845 5845 5845 5845 5845 5845 5845 5845 5846 5846 5847 5847 5848 5849 5849 5849 5848 5847 5846 5845 5845 5844 5844 5843 5842 5841 5840 5840 5839 5838 5838 5838 5837 5837 5837 5836 5836 5837 5837 5837 5837 5837 5838 5838 5839 5839
5843 5843 5844 5844 5844 5845 5844 5844 5843 5843 5844 5845 5845 5844 5844 5844 5844 5844 5845 5844 5843 5842 5841 5840 5839 5838 5837 5836 5835 5834 5834 5833 5833 5832 5832 5831 5831 5831 5830 5830 5830 5831 5831 5832 5832 5832 5833 5833 5834
5843 5842 5843 5842 5843 5843 5842 5842 5842 5841 5841 5841 5840 5839 5838 5839 5840 5840 5840 5839 5838 5838 5837 5836 5834 5833 5832 5830 5829 5828 5827 5827 5827 5826 5826 5825 5824 5824 5824 5824 5824 5824 5825 5825 5826 5826 5827 5828 5828
5843 5842 5842 5842 5842 5842 5842 5840 5839 5838 5837 5837 5837 5836 5835 5835 5836 5836 5834 5832 5831 5831 5831 5830 5828 5827 5825 5824 5822 5821 5820 5820 5819 5819 5819 5818 5817 5817 5817 5817 5817 5817 5818 5818 5819 5820 5821 5822 5822
5841 5842 5841 5841 5841 5840 5839 5838 5837 5835 5834 5835 5834 5833 5833 5832 5832 5831 5829 5826 5825 5824 5823 5821 5820 5819 5817 5816 5814 5813 5813 5812 5811 5811 5810 5810 5810 5809 5809 5809 5810 5810 5810 5811 5812 5813 5814 5815 5816
5840 5841 5839 5838 5838 5837 5836 5835 5834 5832 5831 5832 5831 5830 5829 5828 5827 5825 5823 5820 5817 5816 5814 5813 5812 5811 5810 5808 5806 5805 5804 5803 5803 5802 5802 5801 5801 5801 5801 5801 5801 5802 5802 5803 5805 5806 5807 5808 5809
5839 5838 5838 5837 5835 5833 5832 5831 5831 5831 5831 5830 5828 5826 5824 5822 5820 5818 5816 5814 5811 5809 5808 5806 5804 5803 5802 5801 5800 5798 5797 5796 5795 5794 5794 5793 5793 5793 5793 5793 5793 5794 5795 5796 5797 5798 5799 5800 5801
5837 5837 5836 5835 5833 5831 5829 5830 5830 5830 5830 5827 5824 5821 5818 5816 5813 5811 5809 5807 5805 5803 5802 5800 5798 5795 5794 5794 5793 5792 5790 5789 5787 5787 5786 5786 5785 5785 5785 5785 5785 5786 5787 5788 5789 5790 5791 5792 5794
5837 5837 5836 5834 5832 5830 5829 5829 5829 5828 5827 5825 5822 5819 5815 5812 5809 5805 5803 5801 5799 5797 5795 5793 5791 5789 5786 5785 5784 5783 5782 5781 5780 5779 5778 5777 5777 5777 5777 5777 5777 5777 5778 5779 5780 5781 5783 5784 5786
5837 5836 5834 5832 5830 5828 5827 5827 5826 5824 5822 5820 5817 5814 5811 5808 5804 5801 5797 5794 5791 5789 5787 5785 5783 5780 5778 5776 5775 5774 5773 5772 5771 5769 5768 5768 5768 5768 5768 5768 5769 5769 5769 5770 5771 5772 5774 5775 5777
5835 5834 5832 5830 5827 5825 5823 5823 5821 5819 5816 5814 5811 5808 5805 5802 5799 5795 5791 5787 5784 5781 5779 5777 5774 5771 5769 5767 5765 5763 5762 5761 5760 5759 5758 5757 5756 5757 5757 5758 5758 5759 5760 5761 5762 5763 5764 5766 5767
5832 5832 5830 5827 5824 5823 5821 5820 5817 5815 5812 5809 5806 5803 5800 5797 5793 5789 5785 5781 5776 5773 5770 5767 5765 5762 5759 5757 5755 5753 5751 5749 5748 5747 5746 5745 5744 5744 5745 5745 5746 5747 5748 5750 5752 5753 5754 5755 5757
5830 5829 5828 5826 5824 5822 5821 5818 5815 5813 5810 5806 5802 5798 5794 5790 5786 5782 5777 5773 5768 5764 5760 5757 5753 5751 5748 5745 5742 5740 5738 5736 5734 5733 5732 5731 5731 5730 5731 5731 5732 5733 5734 5736 5738 5740 5742 5744 5745
5829 5828 5827 5825 5822 5819 5816 5814 5812 5809 5806 5801 5796 5791 5787 5782 5778 5773 5769 5764 5759 5754 5750 5745 5741 5738 5734 5732 5729 5726 5723 5721 5719 5718 5716 5716 5715 5715 5715 5716 5717 5718 5719 5721 5723 5725 5727 5730 5732
5829 5826 5824 5823 5820 5816 5813 5810 5807 5804 5799 5794 5789 5784 5779 5774 5769 5764 5759 5753 5748 5743 5739 5734 5730 5725 5721 5718 5714 5711 5708 5705 5703 5701 5699 5698 5698 5698 5698 5698 5699 5701 5703 5704 5706 5708 5710 5713 5716
5828 5826 5823 5820 5817 5813 5809 5806 5802 5797 5792 5787 5782 5777 5771 5766 5760 5753 5747 5741 5735 5730 5725 5720 5715 5711 5706 5702 5698 5695 5691 5688 5685 5683 5681 5680 5679 5679 5680 5681 5681 5682 5684 5686 5688 5691 5693 5696 5699
5826 5823 5820 5817 5813 5808 5804 5800 5796 5791 5785 5780 5774 5768 5762 5756 5749 5742 5735 5728 5721 5715 5708 5702 5697 5691 5687 5682 5679 5675 5672 5669 5667 5665 5663 5661 5660 5660 5661 5662 5663 5663 5665 5667 5669 5672 5675 5677 5680
5824 5821 5817 5814 5810 5804 5800 5795 5790 5784 5778 5771 5765 5757 5750 5743 5735 5727 5719 5711 5703 5696 5689 5682 5676 5669 5664 5659 5655 5652 5650 5647 5644 5643 5642 5641 5640 5640 5640 5641 5643 5644 5645 5647 5649 5652 5655 5659 5662
5822 5818 5814 5810 5806 5800 5795 5789 5783 5776 5768 5761 5753 5744 5735 5726 5717 5707 5698 5689 5680 5673 5666 5659 5653 5646 5639 5633 5628 5624 5621 5620 5618 5617 5617 5617 5616 5616 5616 5617 5619 5622 5624 5626 5628 5631 5635 5639 5643
5819 5815 5811 5806 5800 5795 5788 5781 5774 5766 5758 5749 5740 5730 5720 5709 5698 5686 5675 5665 5656 5648 5642 5636 5629 5622 5615 5608 5602 5596 5593 5590 5588 5586 5587 5589 5590 5589 5589 5590 5593 5596 5600 5602 5605 5608 5612 5617 5622
5815 5811 5807 5802 5796 5790 5782 5773 5763 5755 5745 5735 5724 5713 5701 5689 5677 5665 5653 5643 5633 5625 5618 5611 5605 5598 5591 5584 5577 5572 5568 5564 5561 5558 5556 5557 5559 5560 5560 5560 5564 5569 5574 5577 5580 5583 5587 5592 5598
5812 5808 5803 5796 5789 5782 5773 5762 5752 5740 5728 5717 5705 5693 5680 5667 5654 5643 5632 5621 5612 5603 5595 5588 5581 5575 5569 5563 5556 5551 5546 5542 5538 5535 5532 5530 5531 5531 5531 5530 5534 5541 5547 5551 5554 5558 5562 5567 5573
5806 5802 5797 5790 5782 5774 5763 5750 5739 5725 5711 5698 5685 5672 5658 5646 5634 5622 5610 5599 5589 5580 5571 5565 5560 5555 5550 5545 5540 5535 5530 5526 5522 5516 5512 5508 5507 5506 5505 5505 5508 5514 5521 5527 5531 5534 5539 5544 5549
5801 5795 5789 5781 5771 5761 5750 5738 5724 5709 5695 5681 5667 5654 5641 5629 5617 5605 5593 5580 5568 5558 5550 5543 5540 5537 5534 5530 5527 5522 5517 5512 5506 5500 5493 5488 5483 5481 5480 5481 5485 5492 5499 5506 5510 5514 5518 5523 5529
5795 5788 5780 5769 5756 5746 5736 5722 5709 5692 5681 5667 5653 5639 5627 5615 5603 5591 5578 5564 5552 5540 5532 5526 5523 5522 5520 5518 5515 5511 5505 5500 5493 5487 5481 5474 5467 5461 5458 5457 5462 5470 5480 5487 5493 5498 5502 5507 5513
5788 5780 5769 5759 5745 5731 5718 5708 5693 5677 5664 5650 5635 5621 5610 5599 5588 5577 5565 5553 5541 5530 5521 5516 5513 5512 5510 5508 5504 5500 5494 5488 5482 5476 5469 5461 5453 5447 5443 5440 5443 5451 5461 5471 5477 5483 5488 5493 5499
5780 5771 5761 5750 5737 5722 5706 5694 5675 5661 5646 5632 5620 5609 5597 5587 5576 5566 5555 5545 5534 5524 5517 5511 5508 5505 5502 5499 5495 5490 5485 5479 5473 5466 5459 5450 5442 5436 5432 5430 5431 5437 5446 5455 5462 5468 5474 5480 5485